User: anonymous
Location: eljas
(40.1958°N, 6.8661°W)
Time: 23:59:31
(UTC+02:00)
Language:

Okean O Rocket - Orbit

View from above orbital plane
View from above orbital plane
View from above satellite
View from above satellite

Ground track
Ground track

The orbit data is extracted from the following two-line orbital elements,

1 25861U 99039B   14261.81590231  .00000409  00000-0  64126-4 0  7292
2 25861 097.9606 219.5516 0017097 076.3477 340.5658 14.77769944817698
Epoch (UTC): 18 September 2014 19:34:53
Eccentricity: 0.0017097
inclination: 97.9606°
perigee height: 624 km
apogee height: 648 km
right ascension of ascending node: 219.5516°
argument of perigee: 76.3477°
revolutions per day: 14.77769944
mean anomaly at epoch: 340.5658°
orbit number at epoch: 81769

The dashed part of the orbit path shows where the satellite is in the earth's shadow,  

DLR